Theta_e
335 341 348 348 348 349 348 347 346 346 345 344 344 341 342 344 345 345 347 346 344 343 342 341 343 344 343 344 344 343 343 343 342 342 342 342 341 340 339 339 338 332 337
340 342 346 349 348 348 348 347 347 346 345 343 342 341 340 341 343 341 344 343 341 340 340 342 343 345 344 343 342 341 341 340 340 340 338 339 340 338 338 337 335 330 332
340 343 345 347 348 348 348 347 347 345 344 342 341 343 342 341 340 340 339 341 339 340 340 342 343 344 342 342 342 341 339 338 337 336 335 328 332 337 336 336 333 332 336
340 342 343 345 348 348 347 347 346 345 344 341 341 344 343 341 339 339 338 338 339 339 341 343 341 341 340 339 337 337 337 336 335 332 326 327 330 335 334 332 330 331 330
338 340 341 344 347 348 347 346 345 344 344 343 340 343 344 341 339 338 338 337 337 339 339 340 339 338 337 337 335 337 335 334 333 328 325 323 323 329 331 329 327 328 328
336 339 341 345 347 346 346 346 345 343 343 342 339 340 341 339 337 337 339 336 338 339 338 338 337 336 335 335 333 333 334 332 328 321 323 327 324 329 329 327 328 326 328
334 337 340 344 346 346 346 346 345 343 342 341 339 338 339 339 337 336 338 339 340 337 337 337 335 334 333 332 332 332 332 329 321 321 322 322 323 328 328 327 326 325 325
335 336 338 336 341 343 345 344 343 342 342 342 340 337 337 337 339 337 338 338 339 337 336 335 335 333 332 331 331 330 329 327 322 321 321 321 329 326 326 325 325 324 324
336 334 334 336 337 337 339 339 340 340 340 341 341 339 338 338 339 340 339 339 339 337 336 335 334 332 331 330 329 329 327 326 320 321 322 321 330 325 324 323 323 323 322
333 332 330 331 334 334 336 332 334 336 337 337 335 333 331 332 333 335 334 337 337 337 336 335 333 331 330 328 328 327 324 324 319 320 320 321 327 324 323 322 321 321 321
330 328 329 329 330 331 332 328 329 331 331 330 329 326 324 324 324 326 330 334 335 335 334 333 332 329 327 325 326 325 322 317 317 318 318 326 325 324 323 321 320 320 320
324 325 327 327 328 330 334 329 328 328 327 326 324 323 323 323 323 323 323 328 330 330 331 330 329 327 323 320 318 320 318 317 316 316 317 326 325 325 324 323 322 322 321
325 325 326 326 328 328 329 328 327 325 324 324 323 323 322 322 321 319 318 318 318 319 320 320 318 318 319 317 316 316 317 316 316 315 318 325 326 326 327 326 325 325 324
326 326 326 326 327 327 328 328 327 326 325 323 321 323 320 319 319 318 318 318 317 318 318 318 317 317 316 317 316 316 317 317 316 316 316 319 326 327 329 329 329 328 327
327 328 328 327 327 327 326 327 326 326 326 325 324 322 321 318 318 320 319 318 318 317 318 316 316 316 315 316 316 316 316 317 317 317 316 316 321 326 329 330 331 331 331
328 328 328 328 330 329 326 325 326 326 327 326 324 323 322 320 319 319 318 319 318 318 317 316 315 314 314 314 315 316 316 316 317 317 318 317 320 323 327 330 331 332 333
328 329 328 328 329 330 329 328 330 329 329 325 325 324 323 321 320 319 318 318 318 318 316 314 314 314 313 313 312 314 314 315 315 316 316 317 318 319 323 328 330 331 332
327 328 329 330 329 329 330 330 330 329 327 328 328 325 323 323 321 318 318 318 318 317 316 314 313 312 311 311 310 311 313 313 314 314 314 314 315 318 320 323 326 328 329
327 328 329 329 328 328 328 331 330 329 328 326 326 328 327 326 323 319 317 317 316 316 315 314 313 311 311 313 313 314 315 312 312 313 312 313 313 315 317 319 320 321 324
324 329 329 329 329 327 327 330 330 330 330 330 329 329 328 328 327 323 320 318 317 315 318 314 315 314 314 313 314 314 313 312 311 311 310 311 311 312 313 313 314 315 318
321 326 328 328 327 327 325 327 327 327 328 329 330 330 330 329 329 327 325 323 321 319 316 316 316 314 313 313 311 309 310 311 310 309 309 309 309 310 310 311 312 313 315
320 324 327 327 327 328 327 325 329 328 328 329 329 329 329 329 328 327 326 325 324 321 319 317 316 314 311 313 312 308 306 309 307 311 310 309 309 309 309 310 310 311 311
316 319 325 327 327 328 327 324 326 326 326 325 325 326 328 328 328 327 326 325 324 323 321 320 318 315 314 314 314 312 306 303 310 311 310 309 308 307 307 307 308 309 309
299 301 312 323 326 327 327 325 322 322 322 324 325 326 327 327 327 327 326 325 324 322 321 319 319 317 315 312 313 311 312 310 305 303 306 309 306 306 307 307 305 307 307
303 301 300 312 326 326 326 326 326 324 322 324 324 324 325 324 325 325 325 325 323 321 321 320 319 317 316 314 312 310 308 307 306 303 301 303 306 305 304 304 305 307 307
300 299 298 306 318 326 326 327 326 324 321 321 321 320 320 319 314 314 313 314 312 310 309 309 312 309 309 311 309 309 308 306 305 304 301 301 300 302 302 304 305 305 306
Wind_Speed
2 4 7 9 12 12 14 14 16 13 13 16 16 17 15 14 15 16 16 17 18 19 18 18 19 19 20 22 21 21 21 21 21 21 20 20 20 20 19 18 15 11 18
8 5 8 10 12 12 14 14 14 12 14 16 16 15 17 16 14 14 17 17 17 18 18 18 19 19 20 19 18 19 19 20 19 17 16 14 17 18 17 17 16 13 14
9 7 7 11 11 12 12 13 14 13 15 17 15 14 17 17 16 17 17 16 16 18 17 18 17 16 18 16 16 15 19 18 16 15 13 6 9 16 16 16 16 14 14
10 7 7 10 10 10 12 14 14 13 15 16 16 15 18 18 17 16 16 16 15 17 17 17 17 17 17 18 18 16 18 18 17 15 6 7 9 15 14 14 14 13 13
9 8 8 10 9 10 14 15 15 13 13 14 15 15 18 17 16 15 14 16 15 16 15 16 17 16 16 19 20 15 15 16 15 10 6 6 5 9 12 13 11 11 9
8 7 9 11 10 15 15 15 15 14 13 15 15 15 15 17 15 14 13 15 15 14 15 16 16 14 15 17 17 14 12 13 11 6 6 7 5 10 11 10 10 9 10
7 6 7 11 10 14 15 15 14 13 14 15 15 14 14 14 14 14 13 12 14 14 14 14 13 13 14 15 17 17 13 11 6 6 5 5 6 8 9 9 8 8 8
10 6 6 9 11 13 14 14 14 14 13 13 14 14 13 13 11 13 12 11 12 13 13 13 12 12 12 12 15 15 11 9 6 5 4 3 7 7 7 6 7 7 6
8 8 5 7 9 11 11 12 13 13 12 12 12 13 12 11 10 10 9 12 13 13 12 11 10 9 8 9 9 11 7 7 5 3 3 2 5 5 5 5 4 4 4
8 7 6 6 6 6 6 10 11 11 11 12 11 10 9 10 10 10 9 11 12 11 10 9 8 7 6 5 7 9 9 6 3 3 2 0 3 2 3 2 2 2 2
6 6 7 7 6 6 6 6 8 10 10 9 8 8 7 4 5 6 6 9 9 9 8 7 6 5 5 7 8 9 6 2 1 1 1 2 0 0 1 1 2 2 3
8 7 6 7 7 6 5 5 5 5 4 4 5 5 4 5 4 4 5 7 7 6 5 5 4 3 3 3 3 5 2 1 1 2 2 5 4 3 4 4 5 6 6
8 7 8 7 6 7 6 4 3 3 3 3 6 5 4 3 3 3 2 1 2 3 1 2 2 1 2 1 2 2 3 2 1 2 4 8 7 6 7 7 8 9 9
11 8 8 8 7 6 5 5 4 3 3 3 4 5 4 3 3 3 2 2 2 1 1 0 0 2 2 2 2 3 3 3 2 2 4 8 10 11 11 11 11 12 12
12 11 11 11 9 7 6 4 4 4 4 4 4 5 4 4 4 3 3 3 2 2 2 2 2 1 2 3 3 4 4 5 5 3 3 7 10 14 15 15 15 16 17
11 11 9 10 12 10 7 6 5 4 5 4 4 5 6 4 4 4 3 3 3 3 2 2 2 2 3 3 5 5 6 5 6 5 4 4 9 12 16 19 19 20 20
11 12 10 9 7 11 10 7 5 4 5 4 4 5 6 5 5 4 3 3 3 2 2 1 2 2 3 3 5 5 5 6 5 6 5 5 5 10 14 18 21 22 23
11 12 12 10 8 8 8 7 4 4 4 3 5 4 6 5 5 4 3 3 2 2 2 2 2 3 4 3 4 5 5 5 6 7 6 6 6 6 9 15 19 22 24
14 14 13 11 10 8 7 5 5 5 4 4 3 4 5 6 5 3 3 2 2 2 2 2 1 1 3 3 4 5 6 5 7 7 8 8 6 7 7 11 15 17 21
11 14 14 11 11 7 5 5 3 3 4 3 4 4 5 4 5 4 4 4 4 3 3 0 2 2 3 4 5 7 6 7 5 6 7 5 6 7 6 7 8 8 14
10 13 14 13 10 8 3 4 3 5 2 2 2 5 5 4 4 4 3 3 3 3 3 3 1 2 3 1 3 4 4 6 7 4 4 5 6 6 5 6 5 6 7
12 12 13 14 13 10 7 3 3 3 2 3 4 4 5 5 5 4 4 4 4 2 3 2 3 1 2 2 2 1 4 6 3 4 4 4 7 4 5 7 7 7 7
8 9 12 13 14 12 8 4 4 3 2 2 2 2 4 5 5 5 5 4 3 2 3 3 3 4 3 1 4 2 3 3 7 5 7 4 5 4 4 6 7 8 9
5 5 7 8 11 11 11 8 7 5 4 3 4 3 4 5 4 4 4 3 3 2 3 3 2 2 1 3 2 2 3 3 6 9 2 10 4 5 8 6 6 8 9
5 4 4 6 11 11 12 12 10 7 3 3 3 4 4 2 1 2 1 2 3 3 3 4 3 4 2 2 2 2 2 2 3 4 14 8 9 5 5 5 6 7 9
1 3 4 6 8 12 13 13 11 10 7 5 3 4 3 4 4 6 7 5 5 5 5 5 5 5 4 4 3 4 2 2 5 5 11 15 16 9 4 5 7 6 6
Wind_Direction
189 154 139 119 108 111 113 110 100 100 97 91 89 83 87 87 84 79 78 77 74 77 81 82 82 83 86 84 78 78 78 76 71 66 66 68 67 64 63 67 61 53 55
137 143 140 132 117 111 122 114 111 108 103 96 92 92 85 80 76 80 74 75 81 86 84 91 86 87 87 87 88 91 85 81 77 69 60 56 67 67 62 58 62 68 64
133 130 114 109 113 114 125 118 108 109 102 95 98 92 98 91 86 79 82 84 87 92 90 90 87 90 84 79 70 77 82 75 70 59 53 42 64 60 67 63 70 65 68
126 115 112 113 115 121 134 118 108 108 103 99 92 75 99 94 89 90 90 88 88 90 85 88 88 75 67 60 58 75 79 80 73 63 45 47 54 60 62 70 68 64 61
111 114 119 112 110 126 126 115 107 105 106 103 94 81 100 93 91 92 94 92 93 89 93 86 82 72 64 61 58 84 84 85 80 70 54 56 40 70 70 68 59 64 62
109 114 118 115 111 123 122 116 113 116 114 104 104 93 85 95 92 98 93 99 95 89 88 87 80 73 66 63 57 54 84 87 80 73 65 56 62 70 75 66 67 64 54
114 113 115 114 110 123 123 118 115 113 113 107 105 101 98 98 99 104 101 95 102 95 91 88 82 70 62 60 57 51 87 75 77 67 73 74 61 63 64 55 64 51 58
125 123 121 107 103 118 120 116 116 117 117 114 110 106 108 99 103 110 109 96 96 99 91 87 80 71 61 56 59 51 59 75 76 81 67 63 77 72 65 58 54 54 55
127 123 126 120 116 119 121 122 120 118 116 109 106 103 94 89 84 105 98 90 94 99 95 91 88 77 64 52 50 72 61 91 94 100 84 30 84 72 65 58 47 44 39
137 133 130 122 112 112 124 123 123 118 110 106 104 107 107 97 86 83 80 93 100 103 104 101 93 86 69 39 34 39 54 88 84 93 99 44 54 60 72 58 28 20 11
142 147 143 135 130 126 119 126 115 118 119 121 119 116 96 95 95 88 98 96 101 104 105 103 95 77 47 11 12 10 60 86 126 206 196 187 202 253 274 265 264 265 268
164 165 162 146 144 137 128 127 118 121 123 126 126 124 124 127 127 117 110 110 102 102 111 116 114 88 28 350 352 4 3 75 213 227 252 219 212 235 256 259 265 264 264
176 167 166 155 151 144 139 139 134 135 138 150 156 163 152 141 132 125 120 116 132 108 79 77 76 27 12 19 360 342 334 337 347 280 261 247 242 252 259 260 261 263 266
171 173 172 163 159 161 146 162 161 156 163 163 173 164 142 146 152 157 162 179 171 197 207 203 323 313 327 322 324 327 322 316 301 286 270 257 255 258 266 268 263 260 266
172 173 175 168 168 161 158 164 164 175 177 182 170 167 160 161 177 172 197 204 206 202 193 218 251 284 305 312 306 295 294 290 287 280 275 268 258 263 269 275 274 269 272
180 177 175 170 168 167 165 169 178 176 181 173 174 176 174 168 175 182 191 204 221 209 216 218 235 271 287 299 298 292 280 280 277 278 278 280 268 268 267 270 275 277 275
186 176 183 180 179 169 165 168 173 177 168 168 182 184 176 174 186 182 189 208 227 225 230 259 291 301 299 300 283 285 289 284 289 286 274 264 263 261 265 273 274 274 277
180 182 179 183 185 174 177 159 154 157 153 178 174 176 185 189 180 179 196 221 226 225 220 241 254 286 274 274 302 297 283 283 276 268 269 267 263 268 268 264 268 271 275
183 182 181 181 182 175 177 169 161 164 162 171 174 170 185 180 180 170 201 236 210 224 231 222 273 228 292 290 272 278 277 263 265 273 266 270 265 261 269 272 266 266 271
179 179 180 179 180 170 157 138 155 176 177 175 195 154 161 184 192 183 196 214 209 237 263 8 277 255 262 283 292 287 282 274 266 260 263 261 249 256 259 259 271 276 272
174 173 179 176 179 163 150 155 167 193 185 192 194 198 201 205 219 216 214 231 218 235 253 235 260 300 301 283 301 305 285 259 264 267 278 273 286 275 271 272 276 276 283
177 181 179 182 175 178 170 163 145 152 173 175 185 198 204 208 219 220 226 237 233 243 248 229 213 248 258 215 278 295 318 317 340 291 282 275 272 297 289 282 284 277 277
175 176 181 181 179 181 169 139 98 90 83 142 177 184 214 215 219 217 225 225 242 221 255 241 233 217 260 253 216 253 320 280 332 305 294 305 314 291 291 285 277 278 276
168 150 172 172 177 176 164 167 162 175 166 191 181 185 201 208 228 235 231 230 256 254 254 261 270 256 234 281 337 249 254 285 314 311 325 312 301 305 295 288 276 282 278
145 172 181 177 177 173 172 177 183 187 160 142 165 179 178 158 148 84 72 47 49 42 29 20 359 356 359 325 312 320 294 279 247 279 306 309 296 286 266 258 260 276 277
109 170 191 182 180 174 177 185 180 169 146 138 150 117 98 77 55 43 55 55 47 41 35 21 26 29 13 353 332 329 305 310 313 303 301 305 305 303 275 268 274 260 268